Hourly Data Report for May 20, 2020

TORONTO CITY
ONTARIO
Current Station Operator: ECCC - MSC

43°40'00.000" N
79°24'00.000" W
112.50 m
6158355
71508
XTO

Download Data

Hourly Data (May 2020)
Hourly Data Report for May 20, 2020
TIME
LST
Temp Definition
°C
Dew Point Definition
°C
Rel Hum Definition
%
Precip. Amount Definition
mm

Wind Dir Definition
10's deg

Wind Spd Definition
km/h
Visibility Definition
km
Stn Press Definition
kPa
Hmdx Definition


Wind Chill Definition


Weather Definition


00:00 16.4 1.3 36 0.0       101.08     LegendNANA
01:00 14.1 1.7 43 0.0       101.11     LegendNANA
02:00 12.3 2.1 50 0.0       101.08     LegendNANA
03:00 12.0 2.4 52 0.0       101.12     LegendNANA
04:00 12.1 2.7 53 0.0       101.19     LegendNANA
05:00 12.2 2.4 51 0.0       101.27     LegendNANA
06:00 12.1 2.5 52 0.0       101.35     LegendNANA
07:00 13.6 1.3 43 0.0       101.43     LegendNANA
08:00 15.3 0.7 37 0.0       101.48     LegendNANA
09:00 15.7 -0.3 34 0.0       101.48     LegendNANA
10:00 16.1 0.3 34 0.0       101.51     LegendNANA
11:00 15.9 -0.4 33 0.0       101.51     LegendNANA
12:00 16.7 0.2 33 0.0       101.49     LegendNANA
13:00 17.1 1.4 35 0.0       101.46     LegendNANA
14:00 16.6 -1.0 30 0.0       101.42     LegendNANA
15:00 17.5 -1.0 28 0.0       101.34     LegendNANA
16:00 17.6 -1.1 28 0.0       101.27     LegendNANA
17:00 18.0 -1.4 27 0.2       101.20     LegendNANA
18:00 18.1 -1.3 27 0.0       101.18     LegendNANA
19:00 17.6 -1.1 28 0.0       101.18     LegendNANA
20:00 16.9 -0.9 30 0.0       101.20     LegendNANA
21:00 17.0 -0.4 31 0.0       101.20     LegendNANA
22:00 16.5 -1.0 30 0.0       101.18     LegendNANA
23:00 14.5 -1.0 34 0.0       101.18     LegendNANA

Notes on Data Quality.

Legend

  • E = Estimated
  • M = Missing
  • NA = Not Available*
  • [empty] = Indicates an unobserved value
Date modified: